• în România
  • Lista ţărilor
  • Pe 7 zile
  • Temperatura apei
  • Hartă satelitară
  • Meteo pe hartă
  • Widget-uri
  • user-avatar
    Intrare

    Meteo pe oră la Kurkieki

    Astăzi, 18 Octombrie, Joi

    Timp Temperatura Precipitaţii Vânt Presiune Umiditate
    00:00 +10°C° 0 mm 5 m/s 761 mmHg 93%
    01:00 +9°C° 0 mm 5 m/s 761 mmHg 93%
    02:00 +9°C° 0 mm 5 m/s 761 mmHg 93%
    03:00 +9°C° 0 mm 5 m/s 760 mmHg 94%
    04:00 +11°C° 0 mm 4 m/s 760 mmHg 94%
    05:00 +11°C° 0 mm 4 m/s 760 mmHg 94%
    06:00 +11°C° 0.1 mm 4 m/s 760 mmHg 94%
    07:00 +11°C° 0.1 mm 4 m/s 759 mmHg 94%
    08:00 +11°C° 0.1 mm 4 m/s 759 mmHg 94%
    09:00 +12°C° 0 mm 4 m/s 759 mmHg 91%
    10:00 +12°C° 0 mm 5 m/s 759 mmHg 89%
    11:00 +13°C° 0 mm 5 m/s 759 mmHg 86%
    12:00 +13°C° 0.1 mm 5 m/s 758 mmHg 86%
    13:00 +13°C° 0.1 mm 5 m/s 758 mmHg 85%
    14:00 +13°C° 0.1 mm 5 m/s 757 mmHg 85%
    15:00 +13°C° 0.5 mm 5 m/s 757 mmHg 87%
    16:00 +12°C° 0.5 mm 5 m/s 757 mmHg 89%
    17:00 +12°C° 0.5 mm 5 m/s 757 mmHg 91%
    18:00 +12°C° 0.7 mm 5 m/s 757 mmHg 90%
    19:00 +10°C° 0.7 mm 5 m/s 757 mmHg 90%
    20:00 +10°C° 0.7 mm 5 m/s 757 mmHg 89%
    21:00 +9°C° 0.1 mm 5 m/s 757 mmHg 87%
    22:00 +9°C° 0.1 mm 5 m/s 757 mmHg 84%
    23:00 +8°C° 0.1 mm 6 m/s 758 mmHg 82%

    Mâine, 19 Octombrie, Vineri

    Timp Temperatura Precipitaţii Vânt Presiune Umiditate
    00:00 +7°C° 0 mm 5 m/s 758 mmHg 82%
    01:00 +7°C° 0 mm 5 m/s 758 mmHg 82%
    02:00 +6°C° 0 mm 5 m/s 759 mmHg 82%
    03:00 +6°C° 0 mm 5 m/s 759 mmHg 83%
    04:00 +5°C° 0 mm 5 m/s 759 mmHg 83%
    05:00 +5°C° 0 mm 5 m/s 759 mmHg 84%
    06:00 +5°C° 0 mm 5 m/s 759 mmHg 83%
    07:00 +5°C° 0 mm 5 m/s 759 mmHg 83%
    08:00 +5°C° 0 mm 5 m/s 759 mmHg 82%
    09:00 +5°C° 0 mm 6 m/s 759 mmHg 80%
    10:00 +7°C° 0 mm 6 m/s 759 mmHg 77%
    11:00 +7°C° 0 mm 6 m/s 759 mmHg 74%
    12:00 +7°C° 0 mm 6 m/s 759 mmHg 74%
    13:00 +8°C° 0 mm 6 m/s 760 mmHg 73%
    14:00 +8°C° 0 mm 6 m/s 760 mmHg 72%
    15:00 +8°C° 0 mm 6 m/s 760 mmHg 73%
    16:00 +8°C° 0 mm 6 m/s 760 mmHg 74%
    17:00 +8°C° 0 mm 6 m/s 760 mmHg 75%
    18:00 +7°C° 0 mm 5 m/s 760 mmHg 76%
    19:00 +7°C° 0 mm 5 m/s 760 mmHg 77%
    20:00 +7°C° 0 mm 5 m/s 761 mmHg 78%
    21:00 +6°C° 0 mm 5 m/s 761 mmHg 80%
    22:00 +6°C° 0 mm 5 m/s 761 mmHg 82%
    23:00 +5°C° 0 mm 4 m/s 761 mmHg 84%

    Poimâine, 20 Octombrie, Sâmbătă

    Timp Temperatura Precipitaţii Vânt Presiune Umiditate
    00:00 +5°C° 0 mm 4 m/s 761 mmHg 85%
    01:00 +5°C° 0 mm 4 m/s 762 mmHg 86%
    02:00 +5°C° 0 mm 4 m/s 762 mmHg 87%
    03:00 +5°C° 0 mm 4 m/s 762 mmHg 88%
    04:00 +4°C° 0 mm 4 m/s 762 mmHg 88%
    05:00 +4°C° 0 mm 4 m/s 762 mmHg 89%
    06:00 +4°C° 0 mm 3 m/s 762 mmHg 88%
    07:00 +5°C° 0 mm 3 m/s 762 mmHg 87%
    08:00 +5°C° 0 mm 3 m/s 762 mmHg 86%
    09:00 +5°C° 0 mm 3 m/s 762 mmHg 84%
    10:00 +7°C° 0 mm 3 m/s 762 mmHg 82%
    11:00 +8°C° 0 mm 3 m/s 763 mmHg 79%
    12:00 +8°C° 0 mm 3 m/s 762 mmHg 78%
    13:00 +8°C° 0 mm 3 m/s 762 mmHg 76%
    14:00 +9°C° 0 mm 3 m/s 762 mmHg 74%
    15:00 +8°C° 0 mm 2 m/s 762 mmHg 77%
    16:00 +8°C° 0 mm 2 m/s 762 mmHg 80%
    17:00 +8°C° 0 mm 1 m/s 762 mmHg 83%
    18:00 +8°C° 0.1 mm 1 m/s 762 mmHg 85%
    19:00 +8°C° 0.1 mm 1 m/s 762 mmHg 87%
    20:00 +8°C° 0.1 mm 1 m/s 762 mmHg 88%
    21:00 +7°C° 0 mm 1 m/s 762 mmHg 90%
    22:00 +7°C° 0 mm 1 m/s 763 mmHg 91%
    23:00 +6°C° 0 mm 1 m/s 763 mmHg 93%

    21 Octombrie, Duminică

    Timp Temperatura Precipitaţii Vânt Presiune Umiditate
    00:00 +6°C° 0 mm 1 m/s 763 mmHg 93%
    01:00 +6°C° 0 mm 1 m/s 763 mmHg 93%
    02:00 +6°C° 0 mm 1 m/s 763 mmHg 94%
    03:00 +5°C° 0 mm 1 m/s 764 mmHg 94%
    04:00 +5°C° 0 mm 1 m/s 764 mmHg 94%
    05:00 +5°C° 0 mm 1 m/s 764 mmHg 94%
    06:00 +5°C° 0 mm 1 m/s 764 mmHg 94%
    07:00 +5°C° 0 mm 1 m/s 764 mmHg 94%
    08:00 +4°C° 0 mm 2 m/s 765 mmHg 94%
    09:00 +5°C° 0 mm 2 m/s 765 mmHg 90%
    10:00 +6°C° 0 mm 2 m/s 765 mmHg 86%
    11:00 +7°C° 0 mm 3 m/s 765 mmHg 81%
    12:00 +8°C° 0 mm 3 m/s 764 mmHg 80%
    13:00 +7°C° 0 mm 4 m/s 764 mmHg 78%
    14:00 +7°C° 0 mm 4 m/s 764 mmHg 76%
    15:00 +7°C° 0 mm 5 m/s 763 mmHg 79%
    16:00 +6°C° 0 mm 5 m/s 763 mmHg 81%
    17:00 +6°C° 0 mm 5 m/s 763 mmHg 83%
    18:00 +5°C° 0 mm 6 m/s 762 mmHg 82%
    19:00 +7°C° 0 mm 6 m/s 761 mmHg 81%
    20:00 +6°C° 0 mm 7 m/s 761 mmHg 80%
    21:00 +6°C° 0 mm 7 m/s 760 mmHg 78%
    22:00 +7°C° 0 mm 8 m/s 759 mmHg 76%
    23:00 +7°C° 0 mm 8 m/s 758 mmHg 74%

    22 Octombrie, Luni

    Timp Temperatura Precipitaţii Vânt Presiune Umiditate
    00:00 +7°C° 0.2 mm 9 m/s 757 mmHg 77%
    01:00 +7°C° 0.2 mm 9 m/s 755 mmHg 80%
    02:00 +7°C° 0.2 mm 10 m/s 754 mmHg 82%
    03:00 +8°C° 0.4 mm 10 m/s 753 mmHg 83%
    04:00 +9°C° 0.4 mm 10 m/s 752 mmHg 84%
    05:00 +9°C° 0.4 mm 10 m/s 750 mmHg 85%
    06:00 +9°C° 1.8 mm 10 m/s 750 mmHg 86%
    07:00 +9°C° 1.8 mm 10 m/s 749 mmHg 87%
    08:00 +10°C° 1.8 mm 9 m/s 749 mmHg 88%
    09:00 +9°C° 1.1 mm 8 m/s 749 mmHg 85%
    10:00 +8°C° 1.1 mm 7 m/s 750 mmHg 83%
    11:00 +6°C° 1.1 mm 7 m/s 750 mmHg 80%
    12:00 +7°C° 0 mm 6 m/s 750 mmHg 76%
    13:00 +7°C° 0 mm 6 m/s 751 mmHg 72%
    14:00 +8°C° 0 mm 6 m/s 751 mmHg 68%
    15:00 +7°C° 0 mm 5 m/s 752 mmHg 71%
    16:00 +6°C° 0 mm 5 m/s 752 mmHg 74%
    17:00 +5°C° 0 mm 5 m/s 752 mmHg 77%
    18:00 +5°C° 0.6 mm 4 m/s 752 mmHg 78%
    19:00 +5°C° 0.6 mm 4 m/s 752 mmHg 79%
    20:00 +5°C° 0.6 mm 3 m/s 752 mmHg 81%
    21:00 +5°C° 0.4 mm 4 m/s 752 mmHg 80%
    22:00 +5°C° 0.4 mm 4 m/s 752 mmHg 80%
    23:00 +3°C° 0.4 mm 5 m/s 751 mmHg 80%

    23 Octombrie, Marţi

    Timp Temperatura Precipitaţii Vânt Presiune Umiditate
    00:00 +3°C° 0.2 mm 5 m/s 752 mmHg 78%
    01:00 +3°C° 0.2 mm 6 m/s 752 mmHg 77%
    02:00 +3°C° 0.2 mm 6 m/s 752 mmHg 75%
    03:00 +3°C° 0 mm 6 m/s 752 mmHg 75%
    04:00 +2°C° 0 mm 6 m/s 752 mmHg 75%
    05:00 +2°C° 0 mm 5 m/s 752 mmHg 76%
    06:00 +2°C° 0 mm 5 m/s 752 mmHg 76%
    07:00 +2°C° 0 mm 5 m/s 752 mmHg 77%
    08:00 +2°C° 0 mm 5 m/s 752 mmHg 78%
    09:00 +3°C° 0 mm 5 m/s 752 mmHg 73%
    10:00 +5°C° 0 mm 5 m/s 752 mmHg 69%
    11:00 +6°C° 0 mm 5 m/s 752 mmHg 64%
    12:00 +6°C° 0.1 mm 5 m/s 752 mmHg 65%
    13:00 +6°C° 0.1 mm 5 m/s 752 mmHg 67%
    14:00 +6°C° 0.1 mm 5 m/s 752 mmHg 69%
    15:00 +6°C° 0.2 mm 5 m/s 751 mmHg 72%
    16:00 +6°C° 0.2 mm 5 m/s 751 mmHg 75%
    17:00 +4°C° 0.2 mm 6 m/s 751 mmHg 78%
    18:00 +4°C° 0.1 mm 6 m/s 750 mmHg 79%
    19:00 +4°C° 0.1 mm 6 m/s 750 mmHg 79%
    20:00 +4°C° 0.1 mm 6 m/s 750 mmHg 80%
    21:00 +4°C° 0.4 mm 6 m/s 750 mmHg 82%
    22:00 +4°C° 0.4 mm 6 m/s 749 mmHg 84%
    23:00 +4°C° 0.4 mm 6 m/s 749 mmHg 86%
    Arată mai mult